DW6352 Weather Reports


Display with metric or nautical units.
time (UTC)temp
F
wind
direction
speed
MPH
gust
MPH
rain 1hr
in
rain 24hr
in
rain mn
in
humidity
%
barometer
mb
20260506133003 36 288 9.0 13.0 0.00 0.00 0.00 61 1015.7
20260506131600 36 311 5.0 14.0 0.00 0.00 0.00 61 1015.6
20260506130138 36 295 4.0 11.0 0.00 0.00 0.00 62 1015.5
20260506124555 36 285 5.0 11.0 0.00 0.00 0.00 63 1015.5
20260506123051 36 247 5.0 11.0 0.00 0.00 0.00 62 1015.4
20260506121553 36 305 6.0 12.0 0.00 0.00 0.00 62 1015.1
20260506120045 36 297 5.0 11.0 0.00 0.00 0.00 62 1015.0
20260506114543 36 257 3.0 8.0 0.00 0.00 0.00 62 1014.9
20260506113049 36 297 3.0 8.0 0.00 0.00 0.00 62 1014.8
20260506111538 36 311 3.0 7.0 0.00 0.00 0.00 62 1014.8
20260506110041 36 269 3.0 7.0 0.00 0.00 0.00 62 1014.6
20260506104533 36 281 2.0 6.0 0.00 0.00 0.00 61 1014.3
20260506103033 36 274 3.0 7.0 0.00 0.00 0.00 61 1014.2
20260506101535 36 293 3.0 9.0 0.00 0.00 0.00 60 1014.2
20260506100036 36 263 2.0 6.0 0.00 0.00 0.00 60 1014.2
20260506094532 36 302 3.0 8.0 0.00 0.00 0.00 60 1014.3
20260506093034 36 292 3.0 9.0 0.00 0.00 0.00 60 1014.2
20260506091528 36 303 5.0 10.0 0.00 0.00 0.00 60 1014.0
20260506090036 36 303 5.0 9.0 0.00 0.00 0.00 61 1013.9
20260506084532 36 317 4.0 11.0 0.00 0.00 0.00 62 1013.9
20260506083030 36 306 4.0 9.0 0.00 0.00 0.00 63 1014.0
20260506081522 35 277 6.0 11.0 0.00 0.00 0.00 64 1013.8
20260506073020 34 302 2.0 6.0 0.00 0.00 0.00 66 1013.7
20260506071519 33 296 2.0 6.0 0.00 0.00 0.00 67 1013.7
20260506061511 31 321 0.0 4.0 0.00 0.00 0.00 65 1013.7
20260506044556 36 321 1.0 6.0 0.00 0.00 0.00 61 1013.5
20260506043057 36 343 2.0 5.0 0.00 0.00 0.00 61 1013.4
20260506041551 37 351 2.0 9.0 0.00 0.00 0.00 60 1013.2
20260506040051 37 327 3.0 9.0 0.00 0.00 0.00 60 1013.2
20260506034609 38 330 3.0 10.0 0.00 0.00 0.00 60 1012.9
20260506033049 38 321 4.0 10.0 0.00 0.00 0.00 59 1012.9
20260506031552 39 351 3.0 6.0 0.00 0.00 0.00 58 1012.9
20260506030047 39 16 2.0 9.0 0.00 0.00 0.00 57 1012.8
20260506024551 40 347 5.0 11.0 0.00 0.00 0.00 55 1012.7
20260506023054 40 351 5.0 12.0 0.00 0.00 0.00 54 1012.5
20260506021543 41 329 7.0 12.0 0.00 0.00 0.00 53 1012.4
20260506020041 42 338 8.0 17.0 0.00 0.00 0.00 50 1012.1
20260506014538 42 292 7.0 14.0 0.00 0.00 0.00 47 1011.8
20260506013038 42 300 8.0 17.0 0.00 0.00 0.00 47 1011.6
20260506011542 43 342 13.0 17.0 0.00 0.00 0.00 47 1011.4
20260506010050 43 283 9.0 15.0 0.00 0.00 0.00 47 1011.2
20260506004532 43 300 8.0 18.0 0.00 0.00 0.00 46 1011.1
20260506003032 44 320 7.0 16.0 0.00 0.00 0.00 46 1010.9
20260506001531 44 300 9.0 23.0 0.00 0.00 0.00 45 1010.9
20260506000028 46 318 11.0 17.0 0.00 0.00 0.00 44 1010.6
20260505234527 46 290 13.0 21.0 0.00 0.00 0.00 43 1010.5
20260505233026 47 325 11.0 19.0 0.00 0.00 0.00 42 1010.3
20260505231526 47 325 7.0 17.0 0.00 0.00 0.00 43 1010.2
20260505230037 47 266 9.0 14.0 0.00 0.00 0.00 43 1010.2
20260505224526 47 317 10.0 22.0 0.00 0.00 0.00 41 1010.1
20260505223028 48 250 11.0 19.0 0.00 0.00 0.00 41 1009.9
20260505221525 47 252 9.0 18.0 0.00 0.00 0.00 42 1010.0
20260505220027 47 307 7.0 18.0 0.00 0.00 0.00 41 1010.0
20260505214524 47 304 9.0 18.0 0.00 0.00 0.00 39 1010.0
20260505213027 48 246 10.0 20.0 0.00 0.00 0.00 42 1010.0
20260505211523 47 286 8.0 17.0 0.00 0.00 0.00 41 1010.0
20260505210022 48 248 12.0 21.0 0.00 0.00 0.00 41 1010.1
20260505204522 47 308 12.0 19.0 0.00 0.00 0.00 40 1010.1
20260505203120 47 310 13.0 21.0 0.00 0.00 0.00 41 1010.2
20260505201519 46 249 10.0 20.0 0.00 0.00 0.00 43 1010.2
20260505200017 47 282 7.0 20.0 0.00 0.00 0.00 42 1010.3
20260505194516 46 296 10.0 19.0 0.00 0.00 0.00 45 1010.3
20260505193015 46 252 9.0 19.0 0.00 0.00 0.00 43 1010.2
20260505191514 46 261 10.0 18.0 0.00 0.00 0.00 43 1010.3
20260505190024 46 306 7.0 15.0 0.00 0.00 0.00 43 1010.3
20260505184514 46 273 11.0 20.0 0.00 0.00 0.00 43 1010.3
20260505183013 45 291 10.0 23.0 0.00 0.00 0.00 43 1010.3
20260505181512 46 309 13.0 22.0 0.00 0.00 0.00 44 1010.3
20260505180010 45 236 9.0 15.0 0.00 0.00 0.00 44 1010.2
20260505174508 44 279 12.0 19.0 0.00 0.00 0.00 43 1010.3
20260505173008 44 288 11.0 19.0 0.00 0.00 0.00 45 1010.4
20260505171508 44 323 8.0 21.0 0.00 0.00 0.00 46 1010.3
20260505170014 44 309 9.0 19.0 0.00 0.00 0.00 46 1010.4
20260505164506 44 315 12.0 21.0 0.00 0.00 0.00 48 1010.2
20260505163009 43 260 10.0 22.0 0.00 0.00 0.00 47 1010.2
20260505161502 43 320 9.0 21.0 0.00 0.00 0.00 49 1010.2
20260505153056 41 332 13.0 19.0 0.00 0.00 0.00 53 1010.0
20260505151611 40 298 9.0 21.0 0.00 0.00 0.00 52 1010.0